This demonstration page uses our WeatherBlox Daily Observations layout. Learn more.

Hourly Observations for July 16, 2019

Temp ( °F °C ) Dew Point ( °F °C ) Humidity (%) Winds ( mph kmh ) Pressure ( in mb ) Visibility ( mi km ) Precip ( " mm )
12:15 am 00:15 Clear 75 24 71 21.5 86 86 SE 8 13 29.83 1010 10 16.09344 0 0
12:35 am 00:35 Clear 74 23.5 71 21.5 89 89 SSE 7 11 29.83 1010 10 16.09344 0 0
12:55 am 00:55 Clear 74 23.1 71 21.5 91 91 SSE 7 11 29.83 1010 10 16.09344 0 0
1:15 am 01:15 Clear 73 23 70 21.1 89 89 SSE 7 11 29.83 1010 10 16.09344 0 0
1:35 am 01:35 Clear 74 23.1 69 20.7 86 86 S 9 15 29.83 1010 10 16.09344 0 0
1:50 am 01:50 Clear 74 23.5 69 20.5 83 83 S 10 17 29.83 1010 10 16.09344 0 0
2:15 am 02:15 Clear 74 23.6 68 20.1 81 81 S 13 20 29.83 1010 10 16.09344 0 0
2:35 am 02:35 Clear 74 23.6 68 20 80 80 S 8 13 29.83 1010 10 16.09344 0 0
2:55 am 02:55 Mostly Cloudy 73 23 68 20 83 83 S 6 9 29.83 1010 10 16.09344 0 0
3:15 am 03:15 Partly Cloudy 73 22.9 68 20 84 84 S 8 13 29.8 1009 10 16.09344 0 0
3:35 am 03:35 Clear 72 22.4 68 20.1 87 87 SSE 8 13 29.8 1009 10 16.09344 0 0
3:55 am 03:55 Clear 72 22.2 68 20.2 89 89 S 7 11 29.8 1009 10 16.09344 0 0
4:15 am 04:15 Clear 72 22.2 68 20.2 89 89 SSW 6 9 29.8 1009 10 16.09344 0 0
4:35 am 04:35 Mostly Cloudy 74 23.2 68 20.1 83 83 N 14 22 29.85 1011 10 16.09344 0 0
4:55 am 04:55 Cloudy 73 23 69 20.3 85 85 NNE 14 22 29.85 1011 10 16.09344 0 0
5:15 am 05:15 Mostly Cloudy 71 21.6 66 19 85 85 NE 22 35 29.88 1012 10 16.09344 0 0
5:35 am 05:35 Partly Cloudy 69 20.8 66 19 90 90 NE 17 28 29.88 1012 10 16.09344 0 0
5:55 am 05:55 Partly Cloudy 69 20.3 66 19.1 93 93 ENE 15 24 29.88 1012 10 16.09344 0 0
6:15 am 06:15 Clear 68 20.1 66 19.1 94 94 ENE 10 17 29.88 1012 10 16.09344 0 0
6:35 am 06:35 Sunny 68 20 66 19.1 95 95 ENE 14 22 29.88 1012 10 16.09344 0 0
6:55 am 06:55 Sunny 68 20 66 19 94 94 E 9 15 29.88 1012 10 16.09344 0 0
7:15 am 07:15 Sunny 68 20.1 66 18.8 92 92 E 10 17 29.88 1012 10 16.09344 0 0
7:35 am 07:35 Sunny 69 20.5 66 18.8 90 90 E 8 13 29.88 1012 10 16.09344 0 0
7:55 am 07:55 Sunny with Nearby Thunderstorms 71 21.4 66 19.1 87 87 ESE 12 19 29.88 1012 10 16.09344 0 0
8:15 am 08:15 Mostly Cloudy 71 21.9 66 19 84 84 ESE 10 17 29.88 1012 10 16.09344 0 0
8:35 am 08:35 Mostly Cloudy 71 21.8 66 19.1 85 85 E 10 17 29.88 1012 10 16.09344 0 0
8:55 am 08:55 Partly Cloudy 73 22.9 67 19.6 82 82 ESE 12 19 29.85 1011 10 16.09344 0 0
9:15 am 09:15 Sunny 74 23.6 67 19.6 78 78 ESE 15 24 29.85 1011 10 16.09344 0 0
9:35 am 09:35 Sunny 76 24.4 68 20.1 77 77 ESE 13 20 29.85 1011 10 16.09344 0 0
9:55 am 09:55 Sunny with Nearby Thunderstorms 77 25 69 20.4 76 76 SE 10 17 29.85 1011 10 16.09344 0 0
10:15 am 10:15 Sunny 78 25.4 70 21.1 77 77 SE 12 19 29.85 1011 10 16.09344 0 0
10:35 am 10:35 Sunny 79 26.1 70 21.3 75 75 SSE 12 19 29.85 1011 10 16.09344 0 0
10:55 am 10:55 Sunny 80 26.5 71 21.5 74 74 S 12 19 29.83 1010 10 16.09344 0 0
11:15 am 11:15 Sunny 79 26.2 70 21.2 74 74 SSE 12 19 29.85 1011 10 16.09344 0 0
11:35 am 11:35 Sunny 79 26.3 71 21.6 75 75 S 13 20 29.8 1009 10 16.09344 0 0
11:55 am 11:55 Sunny 81 27.2 72 22 73 73 S 12 19 29.8 1009 10 16.09344 0 0
12:15 pm 12:15 Sunny 82 27.6 72 22 72 72 S 12 19 29.8 1009 10 16.09344 0 0
12:35 pm 12:35 Sunny 82 28 72 22 70 70 S 9 15 29.8 1009 10 16.09344 0 0
12:55 pm 12:55 Sunny 83 28.2 71 21.9 69 69 S 13 20 29.8 1009 10 16.09344 0 0
1:15 pm 13:15 Sunny 83 28.6 72 22.3 69 69 S 15 24 29.8 1009 10 16.09344 0 0
1:35 pm 13:35 Sunny 85 29.3 72 22.4 66 66 S 12 19 29.8 1009 10 16.09344 0 0
1:55 pm 13:55 Sunny 86 29.8 73 22.9 67 67 SSW 12 19 29.8 1009 10 16.09344 0 0
2:15 pm 14:15 Sunny 87 30.3 72 22.1 62 62 SSW 8 13 29.77 1008 10 16.09344 0 0
2:35 pm 14:35 Sunny 87 30.5 71 21.7 59 59 SSE 6 9 29.77 1008 10 16.09344 0 0
2:55 pm 14:55 Sunny 87 30.6 71 21.7 59 59 S 5 7 29.77 1008 10 16.09344 0 0
3:15 pm 15:15 Sunny 88 31.3 71 21.6 56 56 S 6 9 29.77 1008 10 16.09344 0 0
3:35 pm 15:35 Sunny 88 31 71 21.4 57 57 SSE 7 11 29.74 1007 10 16.09344 0 0
3:55 pm 15:55 Sunny 89 31.5 72 22 57 57 SSE 7 11 29.74 1007 10 16.09344 0 0
4:15 pm 16:15 Sunny 89 31.8 71 21.4 54 54 SSW 8 13 29.74 1007 10 16.09344 0 0
4:35 pm 16:35 Sunny 89 31.7 71 21.8 56 56 SE 5 7 29.74 1007 10 16.09344 0 0
4:55 pm 16:55 Sunny 89 31.9 71 21.8 55 55 SSE 6 9 29.74 1007 10 16.09344 0 0
5:15 pm 17:15 Sunny 89 31.9 71 21.8 55 55 SSE 5 7 29.74 1007 10 16.09344 0 0
5:35 pm 17:35 Sunny 89 31.7 71 21.7 55 55 SE 7 11 29.74 1007 10 16.09344 0 0
5:55 pm 17:55 Sunny 89 31.9 72 22.4 57 57 ESE 8 13 29.71 1006 10 16.09344 0 0
6:15 pm 18:15 Sunny 89 31.7 73 22.8 59 59 SE 6 9 29.71 1006 10 16.09344 0 0
6:35 pm 18:35 Sunny 89 31.6 74 23.2 61 61 ESE 10 17 29.71 1006 10 16.09344 0 0
6:55 pm 18:55 Sunny 89 31.5 74 23.2 61 61 ESE 7 11 29.71 1006 10 16.09344 0 0
7:15 pm 19:15 Sunny 88 31.1 74 23.6 64 64 ESE 8 13 29.71 1006 10 16.09344 0 0
7:35 pm 19:35 Sunny 86 30.2 76 24.4 71 71 E 8 13 29.71 1006 10 16.09344 0 0
7:55 pm 19:55 Sunny 86 29.8 76 24.3 72 72 ESE 8 13 29.71 1006 10 16.09344 0 0
8:15 pm 20:15 Sunny 84 29.1 76 24.4 76 76 E 8 13 29.74 1007 10 16.09344 0 0
8:35 pm 20:35 Sunny 82 28 76 24.4 81 81 E 8 13 29.74 1007 10 16.09344 0 0
8:55 pm 20:55 Sunny 81 27.3 76 24.3 84 84 E 7 11 29.74 1007 10 16.09344 0 0
9:15 pm 21:15 Clear 81 27 76 24.2 85 85 E 8 13 29.74 1007 10 16.09344 0 0
9:35 pm 21:35 Clear 80 26.6 75 24 86 86 E 8 13 29.74 1007 10 16.09344 0 0
9:55 pm 21:55 Clear 79 26.3 75 24 87 87 ESE 7 11 29.74 1007 10 16.09344 0 0
10:15 pm 22:15 Clear 79 26 75 24 89 89 ESE 8 13 29.74 1007 10 16.09344 0 0
10:35 pm 22:35 Clear 78 25.8 76 24.2 91 91 ESE 7 11 29.74 1007 10 16.09344 0 0
10:55 pm 22:55 Clear 78 25.5 75 24.1 92 92 ESE 8 13 29.77 1008 10 16.09344 0 0
11:15 pm 23:15 Clear 77 25.1 75 24 94 94 ESE 9 15 29.77 1008 10 16.09344 0 0
11:35 pm 23:35 Clear 77 25 75 24 94 94 SE 6 9 29.8 1009 10 16.09344 0 0
11:55 pm 23:55 Clear 76 24.7 75 23.8 95 95 ESE 7 11 29.8 1009 10 16.09344 0 0

Powered by AerisWeather